Regional Weather Roundup
Issued by NWS

Home | Current Version | Previous Version | Text Only | Print | Product List | Glossary Off
Versions: 1 2 3 4 5 6 7 8 9 10 11 12 13 14 15 16 17 18 19 20 21 22 23 24 25 26 27 28 29 30 31 32 33 34 35 36 37 38 39 40 41 42 43 44 45 46 47 48 49 50

000
ASUS43 KTOP 230359
RWRKS

WEATHER ROUNDUP FOR KANSAS
NATIONAL WEATHER SERVICE GOODLAND KS
1100 PM CDT SUN OCT 22 2017

NOTE:  "FAIR" INDICATES FEW OR NO CLOUDS BELOW 12,000 FEET WITH NO
SIGNIFICANT WEATHER AND/OR OBSTRUCTIONS TO VISIBILITY.

KSZ001>006-013>018-027>032-041>047-230500-
NORTHWEST KANSAS

CITY           SKY/WX    TMP DP  RH WIND       PRES   REMARKS
GOODLAND       CLEAR     52  25  35 SW10      30.05S
HAYS           CLEAR     50  29  44 SW9       30.03F
HILL CITY      CLEAR     54  27  35 SW5       30.03S
RUSSELL        CLEAR     48  32  53 S12       30.02F
$$

KSZ061>065-074>080-084>089-230500-
SOUTHWEST KANSAS

CITY           SKY/WX    TMP DP  RH WIND       PRES   REMARKS
DODGE CITY     CLOUDY    46  27  47 S8        30.07F
ELKHART          N/A     54  32  43 SW5         N/A
GARDEN CITY    CLEAR     50  29  44 SW10      30.06S
GREAT BEND     CLOUDY    48  32  53 S6        30.06S
LIBERAL        CLOUDY    48  32  53 SW9       30.10R
$$

KSZ066>073-081>083-090>101-230500-
SOUTHEAST KANSAS

CITY           SKY/WX    TMP DP  RH WIND       PRES   REMARKS
CHANUTE        CLEAR     45  40  82 S6        30.10S
COFFEYVILLE    CLEAR     46  43  89 E5        30.10S
HUTCHINSON     CLOUDY    48  37  65 CALM      30.08R
MEDICINE LODGE   N/A     52  37  56 S7        30.08S
NEWTON         PTCLDY    50  40  68 S9        30.08F
PARSONS        CLEAR     44  42  93 CALM      30.11S
WICHITA INTL   CLEAR     49  43  80 S8        30.08S
WICHITA JABRA  CLEAR     51  41  68 S7        30.08F
WICHITA MCCONL CLEAR     51  40  66 S7        30.08F
WINFIELD       CLEAR     50  43  77 S6        30.11S
$$

KSZ007>012-019>026-033>040-048>060-102>105-230500-
NORTHEAST KANSAS

CITY           SKY/WX    TMP DP  RH WIND       PRES   REMARKS
CONCORDIA      PTCLDY    56  30  37 S15       30.01F
EMPORIA        CLEAR     47  37  68 S10       30.07F
LAWRENCE       CLEAR     43  41  93 E5        30.07S
MANHATTAN      CLEAR     42  38  85 CALM      30.04F
OLATHE IND     CLEAR     46  40  79 S6        30.09R
OLATHE EXE     CLEAR     47  41  80 S5        30.08R
SALINA         CLOUDY    47  38  71 S7        30.04F
TOPEKA BILLARD CLEAR     46  46 100 CALM      30.06S
TOPEKA FORBES  CLEAR     47  40  76 S6        30.06F
$$




USA.gov is the U.S. government's official web portal to all federal, state and local government web resources and services.